NUSAT-10 (CAROLINE) (46832 NORAD) Tracking and Keplerian Element Data
This shows tracking and keplerian element data for the satellite.
Feedback or suggestion? Click here.
Element | Value |
Catalog | 46832 |
Name | NUSAT-10 (CAROLINE) |
Epoch Orbit | 1161 |
Epoch Day | 21.07867551 |
Epoch Year | 2021 |
RAAN | 97.7209 |
Inclination | 97.2592 |
Eccentricity | 0.0009662 |
Argument of Perigee | 2.7889 |
Mean Anonmoly | 91.1975 |
Mean Motion | 15.31027802 |
Decay Rate | 1.291E-05 |
L1 | 1 46832U 20079F 21021.07867551 .00001291 00000-0 45502-4 0 9999 |
L2 | 2 46832 97.2592 97.7209 0009662 2.7889 91.1975 15.31027802 11610 |
Live tracking and technical data element details for NUSAT-10 (CAROLINE) (NORAD 46832). NUSAT-10 (CAROLINE) can be tracked NOW for your location showing map with azimuth and elevation plus other details from your city location.
Track the satellite on the map from your city or location and see movement details for azimuth, elevation, latitude, longitude, range, height, and movement on the map or in text.
IsCatalogInMostPopularTable: catalog: 46832, numindb: 33
Update: records affected: 1
GetName: 46832 NUSAT-10 (CAROLINE)
Hit Count: updated at: Fri, 22 Jan 2021 17:56:48 GMT